STARLINK-3834 (52368 NORAD) Tracking and Keplerian Element Data

This shows tracking and keplerian element data for the satellite.

Feedback or suggestion? Click here.




ElementValue
Catalog52368
NameSTARLINK-3834
Epoch Orbit130
Epoch Day167.08334491
Epoch Year2022
RAAN202.6644
Inclination53.2137
Eccentricity0.0002715
Argument of Perigee13.2626
Mean Anonmoly293.3753
Mean Motion15.73222052
Decay Rate9.843E-05
L11 52368U 22045AP 22167.08334491 .00009843 00000+0 74399-4 0 9996
L22 52368 53.2137 202.6644 0002715 13.2626 293.3753 15.73222052 1301

Live tracking and technical data element details for STARLINK-3834 (NORAD 52368). STARLINK-3834 can be tracked NOW for your location showing map with azimuth and elevation plus other details from your city location.

Track the satellite on the map from your city or location and see movement details for azimuth, elevation, latitude, longitude, range, height, and movement on the map or in text.







IsCatalogInMostPopularTable: catalog: 52368, numindb: 1
Update: records affected: 1



GetName: 52368 STARLINK-3834

Hit Count: updated at: Mon, 27 Jun 2022 05:36:34 GMT